EW4785 Weather Reports


Display with metric or nautical units.
time (UTC)temp
F
wind
direction
speed
MPH
gust
MPH
rain 1hr
in
rain 24hr
in
rain mn
in
humidity
%
barometer
mb
20260504201526 78 190 1.0 9.0 0.00 0.00 0.00 34 1014.0
20260504200025 78 267 2.0 9.0 0.00 0.00 0.00 34 1014.2
20260504194522 78 187 3.0 8.0 0.00 0.00 0.00 33 1014.4
20260504193021 78 278 2.0 9.0 0.00 0.00 0.00 33 1014.6
20260504191517 77 180 2.0 6.0 0.00 0.00 0.00 34 1014.7
20260504190014 77 155 3.0 7.0 0.00 0.00 0.00 34 1014.9
20260504184513 77 213 2.0 9.0 0.00 0.00 0.00 34 1015.0
20260504183011 77 265 1.0 9.0 0.00 0.00 0.00 34 1015.0
20260504181508 76 236 2.0 5.0 0.00 0.00 0.00 34 1015.4
20260504180006 75 144 4.0 9.0 0.00 0.00 0.00 34 1015.5
20260504174503 75 168 2.0 7.0 0.00 0.00 0.00 34 1015.6
20260504173101 74 271 3.0 8.0 0.00 0.00 0.00 33 1015.7
20260504171558 74 227 4.0 9.0 0.00 0.00 0.00 33 1015.8
20260504081531 44 178 0.0 1.0 0.00 0.00 0.00 78 1017.2
20260504050014 46 178 0.0 1.0 0.00 0.00 0.00 69 1017.5
20260504044514 46 178 0.0 1.0 0.00 0.00 0.00 69 1017.5
20260504043013 46 178 0.0 1.0 0.00 0.00 0.00 68 1017.6
20260504041506 47 178 0.0 2.0 0.00 0.00 0.00 68 1017.6
20260504040137 46 178 0.0 1.0 0.00 0.00 0.00 69 1017.7
20260504034502 46 178 0.0 1.0 0.00 0.00 0.00 69 1017.7
20260504033001 45 178 0.0 0.0 0.00 0.00 0.00 68 1017.6
20260504031501 46 178 0.0 0.0 0.00 0.00 0.00 67 1017.7
20260504030001 46 178 0.0 0.0 0.00 0.00 0.00 66 1017.6
20260504024605 46 178 0.0 0.0 0.00 0.00 0.00 66 1017.5
20260504023059 46 178 0.0 0.0 0.00 0.00 0.00 66 1017.4
20260504021559 47 178 0.0 0.0 0.00 0.00 0.00 67 1017.3
20260504020110 47 178 0.0 0.0 0.00 0.00 0.00 65 1017.0
20260504014555 48 178 0.0 0.0 0.00 0.00 0.00 64 1017.0
20260504013057 49 178 0.0 0.0 0.00 0.00 0.00 63 1017.0
20260504011551 50 178 0.0 0.0 0.00 0.00 0.00 60 1017.0
20260504010053 51 178 0.0 0.0 0.00 0.00 0.00 56 1016.8
20260504004548 53 178 0.0 0.0 0.00 0.00 0.00 54 1016.6
20260504003051 55 178 0.0 0.0 0.00 0.00 0.00 51 1016.4
20260504001552 57 178 0.0 0.0 0.00 0.00 0.00 47 1016.4
20260504000050 59 178 0.0 0.0 0.00 0.00 0.00 45 1016.3
20260503234602 61 178 0.0 0.0 0.00 0.00 0.00 39 1016.3
20260503233049 63 178 0.0 1.0 0.00 0.00 0.00 33 1016.3
20260503231545 65 178 0.0 2.0 0.00 0.00 0.00 30 1016.2
20260503230044 65 11 0.0 2.0 0.00 0.00 0.00 29 1016.2
20260503224543 65 318 0.0 4.0 0.00 0.00 0.00 29 1016.3
20260503223043 66 256 2.0 4.0 0.00 0.00 0.00 30 1016.5
20260503221553 66 161 3.0 6.0 0.00 0.00 0.00 28 1016.7
20260503220041 66 187 1.0 5.0 0.00 0.00 0.00 28 1016.8
20260503214539 65 298 2.0 7.0 0.00 0.00 0.00 28 1017.0
20260503213042 65 286 2.0 7.0 0.00 0.00 0.00 27 1016.9
20260503211539 66 280 3.0 8.0 0.00 0.00 0.00 28 1016.9
20260503210038 66 197 2.0 6.0 0.00 0.00 0.00 28 1017.0
20260503204539 66 165 2.0 6.0 0.00 0.00 0.00 28 1017.2
20260503203051 65 115 1.0 9.0 0.00 0.00 0.00 28 1017.2